Year,Month,Day,Hour,Minute,Value (Times are PST for temperature in C)
2006,08,06,00,00,16.10
2006,08,06,00,01,16.10
2006,08,06,00,02,16.10
2006,08,06,00,03,16.10
2006,08,06,00,04,16.10
2006,08,06,00,05,16.10
2006,08,06,00,06,16.10
2006,08,06,00,07,16.10
2006,08,06,00,08,16.10
2006,08,06,00,09,16.10
2006,08,06,00,10,16.10
2006,08,06,00,11,16.10
2006,08,06,00,12,16.10
2006,08,06,00,13,16.00
2006,08,06,00,14,15.90
2006,08,06,00,15,15.90
2006,08,06,00,16,15.90
2006,08,06,00,17,15.90
2006,08,06,00,18,15.90
2006,08,06,00,19,15.90
2006,08,06,00,20,15.80
2006,08,06,00,21,15.80
2006,08,06,00,22,15.80
2006,08,06,00,23,15.80
2006,08,06,00,24,15.80
2006,08,06,00,25,15.80
2006,08,06,00,26,15.80
2006,08,06,00,27,15.80
2006,08,06,00,28,15.80
2006,08,06,00,29,15.80
2006,08,06,00,30,15.80
2006,08,06,00,31,15.80
2006,08,06,00,32,15.80
2006,08,06,00,33,15.80
2006,08,06,00,34,15.80
2006,08,06,00,35,15.80
2006,08,06,00,36,15.80
2006,08,06,00,37,15.80
2006,08,06,00,38,15.80
2006,08,06,00,39,15.80
2006,08,06,00,40,15.80
2006,08,06,00,41,15.80
2006,08,06,00,42,15.80
2006,08,06,00,43,15.80
2006,08,06,00,44,15.80
2006,08,06,00,45,15.80
2006,08,06,00,46,15.80
2006,08,06,00,47,15.80
2006,08,06,00,48,15.80
2006,08,06,00,49,15.80
2006,08,06,00,50,15.80
2006,08,06,00,51,15.80
2006,08,06,00,52,15.80
2006,08,06,00,53,15.80
2006,08,06,00,54,15.80
2006,08,06,00,55,15.80
2006,08,06,00,56,15.80
2006,08,06,00,57,15.80
2006,08,06,00,58,15.80
2006,08,06,00,59,15.80
2006,08,06,01,00,15.80
2006,08,06,01,01,15.70
2006,08,06,01,02,15.70
2006,08,06,01,03,15.70
2006,08,06,01,04,15.60
2006,08,06,01,05,15.60
2006,08,06,01,06,15.60
2006,08,06,01,07,15.60
2006,08,06,01,08,15.60
2006,08,06,01,09,15.50
2006,08,06,01,10,15.50
2006,08,06,01,11,15.50
2006,08,06,01,12,15.50
2006,08,06,01,13,15.50
2006,08,06,01,14,15.40
2006,08,06,01,15,15.40
2006,08,06,01,16,15.40
2006,08,06,01,17,15.40
2006,08,06,01,18,15.40
2006,08,06,01,19,15.40
2006,08,06,01,20,15.30
2006,08,06,01,21,15.30
2006,08,06,01,22,15.30
2006,08,06,01,23,15.30
2006,08,06,01,24,15.30
2006,08,06,01,25,15.30
2006,08,06,01,26,15.30
2006,08,06,01,27,15.30
2006,08,06,01,28,15.30
2006,08,06,01,29,15.30
2006,08,06,01,30,15.30
2006,08,06,01,31,15.30
2006,08,06,01,32,15.30
2006,08,06,01,33,15.20
2006,08,06,01,34,15.20
2006,08,06,01,35,15.20
2006,08,06,01,36,15.20
2006,08,06,01,37,15.20
2006,08,06,01,38,15.20
2006,08,06,01,39,15.20
2006,08,06,01,40,15.10
2006,08,06,01,41,15.10
2006,08,06,01,42,15.10
2006,08,06,01,43,15.10
2006,08,06,01,44,15.10
2006,08,06,01,45,15.10
2006,08,06,01,46,15.10
2006,08,06,01,47,15.10
2006,08,06,01,48,15.10
2006,08,06,01,49,15.10
2006,08,06,01,50,15.10
2006,08,06,01,51,15.10
2006,08,06,01,52,15.10
2006,08,06,01,53,15.10
2006,08,06,01,54,15.00
2006,08,06,01,55,15.00
2006,08,06,01,56,15.00
2006,08,06,01,57,15.00
2006,08,06,01,58,15.00
2006,08,06,01,59,14.90
2006,08,06,02,00,14.90
2006,08,06,02,01,14.90
2006,08,06,02,02,14.90
2006,08,06,02,03,14.80
2006,08,06,02,04,14.80
2006,08,06,02,05,14.80
2006,08,06,02,06,14.80
2006,08,06,02,07,14.80
2006,08,06,02,08,14.80
2006,08,06,02,09,14.80
2006,08,06,02,10,14.80
2006,08,06,02,11,14.80
2006,08,06,02,12,14.80
2006,08,06,02,13,14.80
2006,08,06,02,14,14.70
2006,08,06,02,15,14.70
2006,08,06,02,16,14.70
2006,08,06,02,17,14.70
2006,08,06,02,18,14.70
2006,08,06,02,19,14.70
2006,08,06,02,20,14.70
2006,08,06,02,21,14.70
2006,08,06,02,22,14.60
2006,08,06,02,23,14.60
2006,08,06,02,24,14.60
2006,08,06,02,25,14.60
2006,08,06,02,26,14.60
2006,08,06,02,27,14.60
2006,08,06,02,28,14.60
2006,08,06,02,29,14.60
2006,08,06,02,30,14.60
2006,08,06,02,31,14.60
2006,08,06,02,32,14.60
2006,08,06,02,33,14.60
2006,08,06,02,34,14.50
2006,08,06,02,35,14.50
2006,08,06,02,36,14.50
2006,08,06,02,37,14.50
2006,08,06,02,38,14.50
2006,08,06,02,39,14.50
2006,08,06,02,40,14.50
2006,08,06,02,41,14.50
2006,08,06,02,42,14.50
2006,08,06,02,43,14.40
2006,08,06,02,44,14.40
2006,08,06,02,45,14.40
2006,08,06,02,46,14.40
2006,08,06,02,47,14.40
2006,08,06,02,48,14.40
2006,08,06,02,49,14.40
2006,08,06,02,50,14.40
2006,08,06,02,51,14.40
2006,08,06,02,52,14.40
2006,08,06,02,53,14.40
2006,08,06,02,54,14.30
2006,08,06,02,55,14.30
2006,08,06,02,56,14.30
2006,08,06,02,57,14.30
2006,08,06,02,58,14.30
2006,08,06,02,59,14.30
2006,08,06,03,00,14.30
2006,08,06,03,01,14.30
2006,08,06,03,02,14.30
2006,08,06,03,03,14.30
2006,08,06,03,04,14.30
2006,08,06,03,05,14.30
2006,08,06,03,06,14.30
2006,08,06,03,07,14.20
2006,08,06,03,08,14.20
2006,08,06,03,09,14.20
2006,08,06,03,10,14.20
2006,08,06,03,11,14.20
2006,08,06,03,12,14.20
2006,08,06,03,13,14.20
2006,08,06,03,14,14.20
2006,08,06,03,15,14.20
2006,08,06,03,16,14.20
2006,08,06,03,17,14.20
2006,08,06,03,18,14.20
2006,08,06,03,19,14.20
2006,08,06,03,20,14.20
2006,08,06,03,21,14.20
2006,08,06,03,22,14.20
2006,08,06,03,23,14.20
2006,08,06,03,24,14.20
2006,08,06,03,25,14.20
2006,08,06,03,26,14.10
2006,08,06,03,27,14.10
2006,08,06,03,28,14.10
2006,08,06,03,29,14.10
2006,08,06,03,30,14.00
2006,08,06,03,31,14.00
2006,08,06,03,32,14.00
2006,08,06,03,33,14.00
2006,08,06,03,34,13.90
2006,08,06,03,35,13.90
2006,08,06,03,36,13.90
2006,08,06,03,37,13.90
2006,08,06,03,38,13.90
2006,08,06,03,39,13.80
2006,08,06,03,40,13.80
2006,08,06,03,41,13.80
2006,08,06,03,42,13.80
2006,08,06,03,43,13.80
2006,08,06,03,44,13.80
2006,08,06,03,45,13.80
2006,08,06,03,46,13.80
2006,08,06,03,47,13.80
2006,08,06,03,48,13.80
2006,08,06,03,49,13.80
2006,08,06,03,50,13.80
2006,08,06,03,51,13.80
2006,08,06,03,52,13.80
2006,08,06,03,53,13.80
2006,08,06,03,54,13.70
2006,08,06,03,55,13.70
2006,08,06,03,56,13.70
2006,08,06,03,57,13.70
2006,08,06,03,58,13.70
2006,08,06,03,59,13.70
2006,08,06,04,00,13.70
2006,08,06,04,01,13.70
2006,08,06,04,02,13.70
2006,08,06,04,03,13.70
2006,08,06,04,04,13.70
2006,08,06,04,05,13.70
2006,08,06,04,06,13.70
2006,08,06,04,07,13.70
2006,08,06,04,08,13.70
2006,08,06,04,09,13.70
2006,08,06,04,10,13.60
2006,08,06,04,11,13.60
2006,08,06,04,12,13.60
2006,08,06,04,13,13.60
2006,08,06,04,14,13.60
2006,08,06,04,15,13.60
2006,08,06,04,16,13.60
2006,08,06,04,17,13.60
2006,08,06,04,18,13.60
2006,08,06,04,19,13.50
2006,08,06,04,20,13.50
2006,08,06,04,21,13.50
2006,08,06,04,22,13.50
2006,08,06,04,23,13.50
2006,08,06,04,24,13.50
2006,08,06,04,25,13.50
2006,08,06,04,26,13.50
2006,08,06,04,27,13.50
2006,08,06,04,28,13.50
2006,08,06,04,29,13.50
2006,08,06,04,30,13.50
2006,08,06,04,31,13.50
2006,08,06,04,32,13.50
2006,08,06,04,33,13.60
2006,08,06,04,34,13.60
2006,08,06,04,35,13.60
2006,08,06,04,36,13.60
2006,08,06,04,37,13.60
2006,08,06,04,38,13.60
2006,08,06,04,39,13.50
2006,08,06,04,40,13.50
2006,08,06,04,41,13.50
2006,08,06,04,42,13.50
2006,08,06,04,43,13.50
2006,08,06,04,44,13.50
2006,08,06,04,45,13.50
2006,08,06,04,46,13.50
2006,08,06,04,47,13.50
2006,08,06,04,48,13.40
2006,08,06,04,49,13.40
2006,08,06,04,50,13.40
2006,08,06,04,51,13.40
2006,08,06,04,52,13.40
2006,08,06,04,53,13.40
2006,08,06,04,54,13.40
2006,08,06,04,55,13.40
2006,08,06,04,56,13.30
2006,08,06,04,57,13.30
2006,08,06,04,58,13.30
2006,08,06,04,59,13.30
2006,08,06,05,00,13.30
2006,08,06,05,01,13.30
2006,08,06,05,02,13.30
2006,08,06,05,03,13.30
2006,08,06,05,04,13.30
2006,08,06,05,05,13.30
2006,08,06,05,06,13.30
2006,08,06,05,07,13.30
2006,08,06,05,08,13.20
2006,08,06,05,09,13.20
2006,08,06,05,10,13.20
2006,08,06,05,11,13.20
2006,08,06,05,12,13.20
2006,08,06,05,13,13.20
2006,08,06,05,14,13.20
2006,08,06,05,15,13.30
2006,08,06,05,16,13.30
2006,08,06,05,17,13.30
2006,08,06,05,18,13.30
2006,08,06,05,19,13.30
2006,08,06,05,20,13.30
2006,08,06,05,21,13.30
2006,08,06,05,22,13.30
2006,08,06,05,23,13.30
2006,08,06,05,24,13.30
2006,08,06,05,25,13.30
2006,08,06,05,26,13.30
2006,08,06,05,27,13.30
2006,08,06,05,28,13.30
2006,08,06,05,29,13.30
2006,08,06,05,30,13.20
2006,08,06,05,31,13.20
2006,08,06,05,32,13.20
2006,08,06,05,33,13.20
2006,08,06,05,34,13.10
2006,08,06,05,35,13.10
2006,08,06,05,36,13.10
2006,08,06,05,37,13.00
2006,08,06,05,38,13.00
2006,08,06,05,39,13.00
2006,08,06,05,40,13.00
2006,08,06,05,41,12.90
2006,08,06,05,42,12.90
2006,08,06,05,43,12.90
2006,08,06,05,44,12.90
2006,08,06,05,45,12.90
2006,08,06,05,46,12.90
2006,08,06,05,47,12.80
2006,08,06,05,48,12.80
2006,08,06,05,49,12.80
2006,08,06,05,50,12.80
2006,08,06,05,51,12.80
2006,08,06,05,52,12.80
2006,08,06,05,53,12.80
2006,08,06,05,54,12.80
2006,08,06,05,55,12.80
2006,08,06,05,56,12.80
2006,08,06,05,57,12.80
2006,08,06,05,58,12.80
2006,08,06,05,59,12.80
2006,08,06,06,00,12.80
2006,08,06,06,01,12.80
2006,08,06,06,02,12.80
2006,08,06,06,03,12.80
2006,08,06,06,04,12.70
2006,08,06,06,05,12.70
2006,08,06,06,06,12.80
2006,08,06,06,07,12.80
2006,08,06,06,08,12.80
2006,08,06,06,09,12.80
2006,08,06,06,10,12.80
2006,08,06,06,11,12.80
2006,08,06,06,12,12.80
2006,08,06,06,13,12.80
2006,08,06,06,14,12.80
2006,08,06,06,15,12.80
2006,08,06,06,16,12.80
2006,08,06,06,17,12.80
2006,08,06,06,18,12.80
2006,08,06,06,19,12.80
2006,08,06,06,20,12.90
2006,08,06,06,21,12.90
2006,08,06,06,22,12.90
2006,08,06,06,23,12.90
2006,08,06,06,24,12.90
2006,08,06,06,25,12.90
2006,08,06,06,26,12.90
2006,08,06,06,27,12.90
2006,08,06,06,28,12.90
2006,08,06,06,29,12.90
2006,08,06,06,30,13.00
2006,08,06,06,31,13.00
2006,08,06,06,32,13.00
2006,08,06,06,33,13.00
2006,08,06,06,34,13.00
2006,08,06,06,35,13.10
2006,08,06,06,36,13.10
2006,08,06,06,37,13.10
2006,08,06,06,38,13.10
2006,08,06,06,39,13.20
2006,08,06,06,40,13.20
2006,08,06,06,41,13.30
2006,08,06,06,42,13.30
2006,08,06,06,43,13.30
2006,08,06,06,44,13.40
2006,08,06,06,45,13.40
2006,08,06,06,46,13.50
2006,08,06,06,47,13.50
2006,08,06,06,48,13.50
2006,08,06,06,49,13.60
2006,08,06,06,50,13.60
2006,08,06,06,51,13.60
2006,08,06,06,52,13.60
2006,08,06,06,53,13.70
2006,08,06,06,54,13.70
2006,08,06,06,55,13.70
2006,08,06,06,56,13.70
2006,08,06,06,57,13.70
2006,08,06,06,58,13.70
2006,08,06,06,59,13.80
2006,08,06,07,00,13.80
2006,08,06,07,01,13.80
2006,08,06,07,02,13.90
2006,08,06,07,03,13.90
2006,08,06,07,04,13.90
2006,08,06,07,05,14.00
2006,08,06,07,06,14.00
2006,08,06,07,07,14.10
2006,08,06,07,08,14.20
2006,08,06,07,09,14.20
2006,08,06,07,10,14.20
2006,08,06,07,11,14.20
2006,08,06,07,12,14.20
2006,08,06,07,13,14.20
2006,08,06,07,14,14.20
2006,08,06,07,15,14.30
2006,08,06,07,16,14.30
2006,08,06,07,17,14.40
2006,08,06,07,18,14.40
2006,08,06,07,19,14.50
2006,08,06,07,20,14.50
2006,08,06,07,21,14.50
2006,08,06,07,22,14.60
2006,08,06,07,23,14.80
2006,08,06,07,24,15.00
2006,08,06,07,25,15.10
2006,08,06,07,26,15.30
2006,08,06,07,27,15.30
2006,08,06,07,28,15.40
2006,08,06,07,29,15.50
2006,08,06,07,30,15.60
2006,08,06,07,31,15.70
2006,08,06,07,32,15.80
2006,08,06,07,33,15.80
2006,08,06,07,34,15.80
2006,08,06,07,35,15.90
2006,08,06,07,36,16.00
2006,08,06,07,37,16.10
2006,08,06,07,38,16.10
2006,08,06,07,39,16.10
2006,08,06,07,40,16.10
2006,08,06,07,41,16.10
2006,08,06,07,42,16.10
2006,08,06,07,43,16.10
2006,08,06,07,44,16.10
2006,08,06,07,45,16.10
2006,08,06,07,46,16.10
2006,08,06,07,47,16.10
2006,08,06,07,48,16.10
2006,08,06,07,49,16.10
2006,08,06,07,50,16.10
2006,08,06,07,51,16.10
2006,08,06,07,52,16.20
2006,08,06,07,53,16.20
2006,08,06,07,54,16.30
2006,08,06,07,55,16.50
2006,08,06,07,56,16.70
2006,08,06,07,57,16.80
2006,08,06,07,58,16.90
2006,08,06,07,59,17.00
2006,08,06,08,00,17.00
2006,08,06,08,01,17.00
2006,08,06,08,02,17.00
2006,08,06,08,03,17.00
2006,08,06,08,04,17.00
2006,08,06,08,05,17.00
2006,08,06,08,06,16.90
2006,08,06,08,07,16.90
2006,08,06,08,08,16.90
2006,08,06,08,09,16.90
2006,08,06,08,10,16.90
2006,08,06,08,11,17.00
2006,08,06,08,12,17.00
2006,08,06,08,13,17.00
2006,08,06,08,14,17.10
2006,08,06,08,15,17.20
2006,08,06,08,16,17.30
2006,08,06,08,17,17.40
2006,08,06,08,18,17.50
2006,08,06,08,19,17.70
2006,08,06,08,20,17.80
2006,08,06,08,21,18.00
2006,08,06,08,22,18.10
2006,08,06,08,23,18.20
2006,08,06,08,24,18.20
2006,08,06,08,25,18.30
2006,08,06,08,26,18.40
2006,08,06,08,27,18.50
2006,08,06,08,28,18.60
2006,08,06,08,29,18.60
2006,08,06,08,30,18.70
2006,08,06,08,31,18.70
2006,08,06,08,32,18.80
2006,08,06,08,33,18.80
2006,08,06,08,34,18.90
2006,08,06,08,35,18.90
2006,08,06,08,36,18.90
2006,08,06,08,37,19.00
2006,08,06,08,38,19.10
2006,08,06,08,39,19.10
2006,08,06,08,40,19.20
2006,08,06,08,41,19.30
2006,08,06,08,42,19.40
2006,08,06,08,43,19.40
2006,08,06,08,44,19.50
2006,08,06,08,45,19.60
2006,08,06,08,46,19.70
2006,08,06,08,47,19.70
2006,08,06,08,48,19.80
2006,08,06,08,49,19.80
2006,08,06,08,50,19.80
2006,08,06,08,51,19.80
2006,08,06,08,52,19.90
2006,08,06,08,53,19.90
2006,08,06,08,54,19.90
2006,08,06,08,55,19.90
2006,08,06,08,56,20.00
2006,08,06,08,57,20.10
2006,08,06,08,58,20.10
2006,08,06,08,59,20.10
2006,08,06,09,00,20.20
2006,08,06,09,01,20.20
2006,08,06,09,02,20.20
2006,08,06,09,03,20.20
2006,08,06,09,04,20.20
2006,08,06,09,05,20.20
2006,08,06,09,06,20.30
2006,08,06,09,07,20.40
2006,08,06,09,08,20.40
2006,08,06,09,09,20.50
2006,08,06,09,10,20.50
2006,08,06,09,11,20.60
2006,08,06,09,12,20.60
2006,08,06,09,13,20.70
2006,08,06,09,14,20.70
2006,08,06,09,15,20.80
2006,08,06,09,16,20.80
2006,08,06,09,17,20.90
2006,08,06,09,18,20.90
2006,08,06,09,19,21.00
2006,08,06,09,20,21.00
2006,08,06,09,21,21.10
2006,08,06,09,22,21.10
2006,08,06,09,23,21.20
2006,08,06,09,24,21.30
2006,08,06,09,25,21.30
2006,08,06,09,26,21.40
2006,08,06,09,27,21.40
2006,08,06,09,28,21.50
2006,08,06,09,29,21.60
2006,08,06,09,30,21.70
2006,08,06,09,31,21.70
2006,08,06,09,32,21.80
2006,08,06,09,33,21.90
2006,08,06,09,34,22.00
2006,08,06,09,35,22.00
2006,08,06,09,36,22.10
2006,08,06,09,37,22.20
2006,08,06,09,38,22.30
2006,08,06,09,39,22.30
2006,08,06,09,40,22.40
2006,08,06,09,41,22.40
2006,08,06,09,42,22.30
2006,08,06,09,43,22.20
2006,08,06,09,44,21.90
2006,08,06,09,45,21.60
2006,08,06,09,46,21.40
2006,08,06,09,47,21.20
2006,08,06,09,48,20.90
2006,08,06,09,49,20.70
2006,08,06,09,50,20.50
2006,08,06,09,51,20.30
2006,08,06,09,52,20.20
2006,08,06,09,53,20.20
2006,08,06,09,54,20.10
2006,08,06,09,55,20.00
2006,08,06,09,56,19.90
2006,08,06,09,57,19.90
2006,08,06,09,58,19.80
2006,08,06,09,59,19.80
2006,08,06,10,00,19.70
2006,08,06,10,01,19.70
2006,08,06,10,02,19.70
2006,08,06,10,03,19.60
2006,08,06,10,04,19.60
2006,08,06,10,05,19.60
2006,08,06,10,06,19.60
2006,08,06,10,07,19.60
2006,08,06,10,08,19.60
2006,08,06,10,09,19.60
2006,08,06,10,10,19.70
2006,08,06,10,11,19.80
2006,08,06,10,12,19.80
2006,08,06,10,13,19.90
2006,08,06,10,14,19.90
2006,08,06,10,15,19.90
2006,08,06,10,16,19.90
2006,08,06,10,17,19.90
2006,08,06,10,18,19.90
2006,08,06,10,19,19.90
2006,08,06,10,20,19.80
2006,08,06,10,21,19.80
2006,08,06,10,22,19.70
2006,08,06,10,23,19.80
2006,08,06,10,24,19.80
2006,08,06,10,25,19.90
2006,08,06,10,26,19.90
2006,08,06,10,27,19.90
2006,08,06,10,28,19.90
2006,08,06,10,29,19.90
2006,08,06,10,30,19.90
2006,08,06,10,31,19.90
2006,08,06,10,32,19.90
2006,08,06,10,33,19.90
2006,08,06,10,34,19.70
2006,08,06,10,35,19.60
2006,08,06,10,36,19.50
2006,08,06,10,37,19.50
2006,08,06,10,38,19.40
2006,08,06,10,39,19.40
2006,08,06,10,40,19.30
2006,08,06,10,41,19.30
2006,08,06,10,42,19.40
2006,08,06,10,43,19.50
2006,08,06,10,44,19.60
2006,08,06,10,45,19.70
2006,08,06,10,46,19.80
2006,08,06,10,47,19.90
2006,08,06,10,48,19.90
2006,08,06,10,49,19.90
2006,08,06,10,50,19.90
2006,08,06,10,51,19.90
2006,08,06,10,52,19.90
2006,08,06,10,53,19.90
2006,08,06,10,54,19.90
2006,08,06,10,55,19.90
2006,08,06,10,56,20.00
2006,08,06,10,57,20.10
2006,08,06,10,58,20.20
2006,08,06,10,59,20.20
2006,08,06,11,00,20.30
2006,08,06,11,01,20.40
2006,08,06,11,02,20.40
2006,08,06,11,03,20.40
2006,08,06,11,04,20.40
2006,08,06,11,05,20.50
2006,08,06,11,06,20.40
2006,08,06,11,07,20.40
2006,08,06,11,08,20.40
2006,08,06,11,09,20.40
2006,08,06,11,10,20.40
2006,08,06,11,11,20.40
2006,08,06,11,12,20.30
2006,08,06,11,13,20.30
2006,08,06,11,14,20.30
2006,08,06,11,15,20.30
2006,08,06,11,16,20.30
2006,08,06,11,17,20.30
2006,08,06,11,18,20.30
2006,08,06,11,19,20.30
2006,08,06,11,20,20.40
2006,08,06,11,21,20.50
2006,08,06,11,22,20.60
2006,08,06,11,23,20.80
2006,08,06,11,24,20.80
2006,08,06,11,25,20.90
2006,08,06,11,26,20.80
2006,08,06,11,27,20.60
2006,08,06,11,28,20.50
2006,08,06,11,29,20.40
2006,08,06,11,30,20.30
2006,08,06,11,31,20.30
2006,08,06,11,32,20.50
2006,08,06,11,33,20.60
2006,08,06,11,34,20.60
2006,08,06,11,35,20.80
2006,08,06,11,36,21.00
2006,08,06,11,37,21.00
2006,08,06,11,38,21.10
2006,08,06,11,39,21.20
2006,08,06,11,40,21.40
2006,08,06,11,41,21.40
2006,08,06,11,42,21.60
2006,08,06,11,43,21.60
2006,08,06,11,44,21.70
2006,08,06,11,45,21.90
2006,08,06,11,46,22.00
2006,08,06,11,47,22.00
2006,08,06,11,48,21.80
2006,08,06,11,49,21.70
2006,08,06,11,50,21.70
2006,08,06,11,51,21.60
2006,08,06,11,52,21.40
2006,08,06,11,53,21.30
2006,08,06,11,54,21.30
2006,08,06,11,55,21.30
2006,08,06,11,56,21.40
2006,08,06,11,57,21.60
2006,08,06,11,58,21.60
2006,08,06,11,59,21.70
2006,08,06,12,00,21.80
2006,08,06,12,01,22.00
2006,08,06,12,02,22.10
2006,08,06,12,03,22.20
2006,08,06,12,04,22.30
2006,08,06,12,05,22.30
2006,08,06,12,06,22.20
2006,08,06,12,07,22.10
2006,08,06,12,08,22.00
2006,08,06,12,09,21.90
2006,08,06,12,10,21.70
2006,08,06,12,11,21.70
2006,08,06,12,12,21.70
2006,08,06,12,13,21.80
2006,08,06,12,14,22.00
2006,08,06,12,15,22.10
2006,08,06,12,16,22.00
2006,08,06,12,17,21.90
2006,08,06,12,18,21.70
2006,08,06,12,19,21.70
2006,08,06,12,20,21.70
2006,08,06,12,21,21.70
2006,08,06,12,22,21.70
2006,08,06,12,23,21.70
2006,08,06,12,24,21.70
2006,08,06,12,25,21.70
2006,08,06,12,26,21.60
2006,08,06,12,27,21.70
2006,08,06,12,28,21.80
2006,08,06,12,29,21.90
2006,08,06,12,30,22.00
2006,08,06,12,31,22.10
2006,08,06,12,32,22.00
2006,08,06,12,33,22.00
2006,08,06,12,34,21.90
2006,08,06,12,35,22.00
2006,08,06,12,36,22.00
2006,08,06,12,37,22.10
2006,08,06,12,38,22.20
2006,08,06,12,39,22.20
2006,08,06,12,40,22.20
2006,08,06,12,41,22.20
2006,08,06,12,42,22.10
2006,08,06,12,43,22.00
2006,08,06,12,44,21.90
2006,08,06,12,45,21.80
2006,08,06,12,46,21.70
2006,08,06,12,47,21.70
2006,08,06,12,48,21.60
2006,08,06,12,49,21.60
2006,08,06,12,50,21.70
2006,08,06,12,51,21.80
2006,08,06,12,52,21.90
2006,08,06,12,53,22.00
2006,08,06,12,54,22.10
2006,08,06,12,55,22.10
2006,08,06,12,56,22.30
2006,08,06,12,57,22.40
2006,08,06,12,58,22.50
2006,08,06,12,59,22.60
2006,08,06,13,00,22.60
2006,08,06,13,01,22.70
2006,08,06,13,02,22.70
2006,08,06,13,03,22.70
2006,08,06,13,04,22.80
2006,08,06,13,05,22.80
2006,08,06,13,06,22.80
2006,08,06,13,07,22.80
2006,08,06,13,08,22.90
2006,08,06,13,09,22.80
2006,08,06,13,10,22.90
2006,08,06,13,11,22.90
2006,08,06,13,12,23.00
2006,08,06,13,13,23.10
2006,08,06,13,14,23.30
2006,08,06,13,15,23.30
2006,08,06,13,16,23.30
2006,08,06,13,17,23.30
2006,08,06,13,18,23.20
2006,08,06,13,19,23.10
2006,08,06,13,20,23.20
2006,08,06,13,21,23.20
2006,08,06,13,22,23.40
2006,08,06,13,23,23.50
2006,08,06,13,24,23.50
2006,08,06,13,25,23.30
2006,08,06,13,26,23.10
2006,08,06,13,27,22.90
2006,08,06,13,28,22.90
2006,08,06,13,29,22.90
2006,08,06,13,30,22.80
2006,08,06,13,31,22.70
2006,08,06,13,32,22.60
2006,08,06,13,33,22.60
2006,08,06,13,34,22.70
2006,08,06,13,35,22.70
2006,08,06,13,36,22.60
2006,08,06,13,37,22.60
2006,08,06,13,38,22.70
2006,08,06,13,39,22.60
2006,08,06,13,40,22.70
2006,08,06,13,41,22.80
2006,08,06,13,42,22.90
2006,08,06,13,43,22.90
2006,08,06,13,44,23.00
2006,08,06,13,45,23.10
2006,08,06,13,46,23.00
2006,08,06,13,47,22.90
2006,08,06,13,48,22.90
2006,08,06,13,49,22.90
2006,08,06,13,50,23.00
2006,08,06,13,51,23.10
2006,08,06,13,52,23.20
2006,08,06,13,53,23.30
2006,08,06,13,54,23.40
2006,08,06,13,55,23.60
2006,08,06,13,56,23.60
2006,08,06,13,57,23.70
2006,08,06,13,58,23.70
2006,08,06,13,59,23.70
2006,08,06,14,00,23.70
2006,08,06,14,01,23.80
2006,08,06,14,02,23.80
2006,08,06,14,03,23.90
2006,08,06,14,04,23.90
2006,08,06,14,05,23.90
2006,08,06,14,06,24.00
2006,08,06,14,07,24.10
2006,08,06,14,08,24.10
2006,08,06,14,09,24.10
2006,08,06,14,10,24.10
2006,08,06,14,11,24.20
2006,08,06,14,12,24.30
2006,08,06,14,13,24.30
2006,08,06,14,14,24.30
2006,08,06,14,15,24.40
2006,08,06,14,16,24.40
2006,08,06,14,17,24.40
2006,08,06,14,18,24.40
2006,08,06,14,19,24.40
2006,08,06,14,20,24.50
2006,08,06,14,21,24.50
2006,08,06,14,22,24.50
2006,08,06,14,23,24.40
2006,08,06,14,24,24.40
2006,08,06,14,25,24.30
2006,08,06,14,26,24.40
2006,08,06,14,27,24.40
2006,08,06,14,28,24.50
2006,08,06,14,29,24.60
2006,08,06,14,30,24.60
2006,08,06,14,31,24.50
2006,08,06,14,32,24.40
2006,08,06,14,33,24.40
2006,08,06,14,34,24.40
2006,08,06,14,35,24.40
2006,08,06,14,36,24.40
2006,08,06,14,37,24.30
2006,08,06,14,38,24.30
2006,08,06,14,39,24.30
2006,08,06,14,40,24.30
2006,08,06,14,41,24.20
2006,08,06,14,42,24.10
2006,08,06,14,43,24.10
2006,08,06,14,44,24.00
2006,08,06,14,45,23.90
2006,08,06,14,46,23.90
2006,08,06,14,47,23.90
2006,08,06,14,48,23.80
2006,08,06,14,49,23.90
2006,08,06,14,50,23.90
2006,08,06,14,51,23.80
2006,08,06,14,52,23.70
2006,08,06,14,53,23.70
2006,08,06,14,54,23.60
2006,08,06,14,55,23.40
2006,08,06,14,56,23.30
2006,08,06,14,57,23.30
2006,08,06,14,58,23.30
2006,08,06,14,59,23.30
2006,08,06,15,00,23.30
2006,08,06,15,01,23.30
2006,08,06,15,02,23.30
2006,08,06,15,03,23.30
2006,08,06,15,04,23.30
2006,08,06,15,05,23.30
2006,08,06,15,06,23.40
2006,08,06,15,07,23.40
2006,08,06,15,08,23.50
2006,08,06,15,09,23.60
2006,08,06,15,10,23.70
2006,08,06,15,11,23.70
2006,08,06,15,12,23.60
2006,08,06,15,13,23.40
2006,08,06,15,14,23.30
2006,08,06,15,15,23.10
2006,08,06,15,16,23.10
2006,08,06,15,17,23.00
2006,08,06,15,18,22.70
2006,08,06,15,19,22.50
2006,08,06,15,20,22.50
2006,08,06,15,21,22.50
2006,08,06,15,22,22.50
2006,08,06,15,23,22.50
2006,08,06,15,24,22.50
2006,08,06,15,25,22.50
2006,08,06,15,26,22.50
2006,08,06,15,27,22.50
2006,08,06,15,28,22.40
2006,08,06,15,29,22.40
2006,08,06,15,30,22.20
2006,08,06,15,31,22.00
2006,08,06,15,32,21.80
2006,08,06,15,33,21.80
2006,08,06,15,34,21.80
2006,08,06,15,35,21.80
2006,08,06,15,36,21.80
2006,08,06,15,37,21.60
2006,08,06,15,38,21.60
2006,08,06,15,39,21.60
2006,08,06,15,40,21.60
2006,08,06,15,41,21.60
2006,08,06,15,42,21.60
2006,08,06,15,43,21.60
2006,08,06,15,44,21.60
2006,08,06,15,45,21.60
2006,08,06,15,46,21.60
2006,08,06,15,47,21.60
2006,08,06,15,48,21.70
2006,08,06,15,49,21.70
2006,08,06,15,50,21.70
2006,08,06,15,51,21.70
2006,08,06,15,52,21.70
2006,08,06,15,53,21.80
2006,08,06,15,54,21.80
2006,08,06,15,55,21.80
2006,08,06,15,56,21.80
2006,08,06,15,57,21.80
2006,08,06,15,58,21.90
2006,08,06,15,59,22.00
2006,08,06,16,00,22.00
2006,08,06,16,01,22.10
2006,08,06,16,02,22.20
2006,08,06,16,03,22.30
2006,08,06,16,04,22.40
2006,08,06,16,05,22.40
2006,08,06,16,06,22.50
2006,08,06,16,07,22.60
2006,08,06,16,08,22.70
2006,08,06,16,09,22.70
2006,08,06,16,10,22.70
2006,08,06,16,11,22.70
2006,08,06,16,12,22.80
2006,08,06,16,13,22.80
2006,08,06,16,14,22.90
2006,08,06,16,15,22.90
2006,08,06,16,16,22.90
2006,08,06,16,17,22.90
2006,08,06,16,18,22.90
2006,08,06,16,19,23.00
2006,08,06,16,20,23.10
2006,08,06,16,21,23.20
2006,08,06,16,22,23.30
2006,08,06,16,23,23.30
2006,08,06,16,24,23.40
2006,08,06,16,25,23.40
2006,08,06,16,26,23.50
2006,08,06,16,27,23.60
2006,08,06,16,28,23.70
2006,08,06,16,29,23.70
2006,08,06,16,30,23.70
2006,08,06,16,31,23.70
2006,08,06,16,32,23.70
2006,08,06,16,33,23.70
2006,08,06,16,34,23.70
2006,08,06,16,35,23.70
2006,08,06,16,36,23.70
2006,08,06,16,37,23.80
2006,08,06,16,38,23.80
2006,08,06,16,39,23.90
2006,08,06,16,40,23.90
2006,08,06,16,41,23.80
2006,08,06,16,42,23.80
2006,08,06,16,43,23.80
2006,08,06,16,44,23.90
2006,08,06,16,45,24.00
2006,08,06,16,46,24.10
2006,08,06,16,47,24.00
2006,08,06,16,48,23.70
2006,08,06,16,49,23.50
2006,08,06,16,50,23.20
2006,08,06,16,51,22.70
2006,08,06,16,52,22.40
2006,08,06,16,53,22.30
2006,08,06,16,54,22.30
2006,08,06,16,55,22.30
2006,08,06,16,56,22.40
2006,08,06,16,57,22.30
2006,08,06,16,58,22.40
2006,08,06,16,59,22.40
2006,08,06,17,00,22.40
2006,08,06,17,01,22.50
2006,08,06,17,02,22.50
2006,08,06,17,03,22.50
2006,08,06,17,04,22.60
2006,08,06,17,05,22.60
2006,08,06,17,06,22.30
2006,08,06,17,07,22.10
2006,08,06,17,08,21.90
2006,08,06,17,09,21.70
2006,08,06,17,10,21.70
2006,08,06,17,11,21.80
2006,08,06,17,12,21.90
2006,08,06,17,13,21.90
2006,08,06,17,14,22.00
2006,08,06,17,15,22.10
2006,08,06,17,16,22.10
2006,08,06,17,17,22.20
2006,08,06,17,18,22.20
2006,08,06,17,19,22.30